Wind_Speed
2 2 1 0 1 3 4 6 8 8 8 10 12 14 14 15 16 17 18 19 20 21 21 22 22 22 23 24 25 24 24 24 25 25 25 26 26 26 25 24 24 24 24 24
1 2 2 2 3 4 5 7 9 9 10 12 13 15 15 15 16 17 19 20 21 21 22 23 22 23 24 25 25 25 25 25 25 25 26 26 26 25 25 25 24 24 25 24
2 2 4 5 6 7 8 9 10 10 11 12 15 16 15 15 16 18 19 20 21 22 23 23 23 24 24 25 26 26 25 25 26 26 26 25 25 25 25 25 26 25 24 24
4 4 6 8 8 9 9 10 11 11 12 11 13 15 15 16 16 17 19 20 23 23 24 24 26 26 26 27 27 27 26 27 27 27 26 25 26 26 25 25 25 24 24 24
5 6 6 8 8 9 9 10 10 11 12 13 15 16 16 16 17 18 19 21 23 24 25 26 27 27 28 28 27 27 27 28 28 28 27 26 26 25 25 24 24 23 23 23
5 7 8 9 8 10 10 9 10 11 13 14 14 16 16 17 19 19 20 22 22 24 26 28 27 27 27 27 27 27 27 27 27 27 26 25 25 25 24 24 24 24 22 22
6 7 9 9 9 9 10 10 10 10 13 14 15 16 16 17 17 19 20 22 24 25 26 27 26 26 27 27 27 27 27 26 26 25 24 23 23 23 23 23 23 22 22 22
8 9 10 10 10 10 11 11 11 12 13 14 14 15 16 17 18 20 22 23 25 25 25 27 27 26 27 26 26 26 26 25 24 24 23 23 22 21 21 22 21 21 20 21
8 9 10 10 11 12 12 12 13 12 13 13 14 16 17 18 19 21 22 24 24 25 27 26 26 27 27 26 25 25 26 25 24 23 22 22 21 20 21 21 20 20 19 18
9 9 9 10 11 12 12 12 12 13 14 14 15 17 18 19 20 22 23 24 25 27 28 27 26 27 27 25 25 25 25 23 23 22 22 21 20 20 19 18 18 18 18 17
10 10 9 10 11 12 13 13 13 14 15 17 18 18 19 21 22 23 25 26 26 26 26 27 27 27 26 25 25 24 21 21 21 22 22 22 21 20 18 18 17 18 18 17
11 10 11 11 12 12 13 13 14 15 16 17 19 20 20 21 23 24 25 27 27 26 26 26 26 25 25 25 25 23 23 22 22 22 21 20 19 18 17 17 17 18 18 18
12 11 12 11 12 13 13 14 15 16 17 18 19 20 21 22 22 23 25 25 25 25 25 25 25 25 24 23 23 23 23 23 22 21 19 18 18 16 16 16 17 17 18 17
12 12 13 12 13 14 14 14 16 17 18 19 20 21 21 21 22 23 24 24 24 24 24 24 25 24 23 23 22 22 21 21 20 19 17 17 16 15 15 16 16 16 16 16
13 13 14 14 15 15 15 15 17 17 18 19 20 21 21 22 23 24 25 24 24 24 24 23 23 23 22 21 21 20 19 18 17 16 16 15 15 15 15 15 15 15 15 16
14 15 16 16 16 17 16 16 17 18 18 19 20 20 21 22 24 24 24 24 24 23 23 22 22 21 21 20 19 18 17 16 15 14 14 14 15 15 15 15 14 14 14 14
16 17 17 18 18 17 17 17 18 18 18 18 19 20 21 22 23 24 24 24 24 22 22 21 21 19 19 19 18 17 15 14 13 13 13 14 14 14 14 13 13 13 13 13
18 18 18 19 20 19 18 18 18 18 18 18 19 20 21 22 23 24 23 23 23 22 22 21 19 18 18 18 16 15 14 13 13 13 13 12 12 13 12 12 12 12 12 13
20 20 21 21 21 20 19 18 19 19 19 19 20 21 21 21 23 23 22 22 22 22 21 19 17 17 17 16 15 15 14 14 14 13 12 11 12 12 11 11 10 11 12 12
22 22 22 22 22 21 19 19 19 20 20 20 21 21 21 22 22 22 22 22 21 20 19 18 17 16 16 15 15 15 15 15 14 12 11 11 11 11 10 10 9 10 11 12
22 22 22 21 21 21 20 20 21 21 21 20 20 20 20 21 21 21 21 21 19 18 17 17 16 16 15 14 14 15 15 14 13 12 11 10 9 9 9 9 9 9 10 11
21 22 22 23 22 21 21 21 21 21 21 21 20 19 20 20 20 20 20 19 18 17 17 16 15 14 14 14 14 14 14 13 12 11 10 9 8 7 7 8 8 9 11 11
22 23 23 23 22 22 21 21 22 22 22 21 20 19 19 19 19 19 19 18 18 17 16 14 14 14 13 13 13 13 13 11 10 9 9 8 7 6 6 6 7 9 11 12
24 24 24 24 23 23 22 22 22 22 22 20 19 19 18 18 18 18 18 17 16 15 15 14 14 13 12 11 11 11 10 9 9 9 8 7 6 6 7 7 8 9 11 13
25 25 25 25 24 24 24 23 23 22 22 20 19 18 18 17 17 17 17 16 15 14 14 14 13 12 11 10 9 8 8 8 8 8 7 7 6 6 7 8 8 10 12 13
25 25 25 25 25 25 24 23 23 23 21 20 19 18 17 17 17 16 16 14 13 13 12 12 12 11 10 8 6 6 7 7 7 7 6 7 6 6 7 9 10 11 12 14
Wind_Direction
50 32 11 308 292 264 255 247 237 232 244 254 260 264 270 276 283 288 293 297 300 304 304 306 309 310 310 308 307 307 305 304 301 300 300 297 296 295 294 296 296 296 296 296
31 356 0 332 308 295 274 260 247 239 254 264 268 269 275 279 285 289 291 296 299 302 303 304 304 306 307 305 305 306 305 304 303 301 299 297 298 296 295 296 296 296 294 293
324 321 325 307 299 289 273 276 269 256 258 267 272 277 284 290 294 293 295 299 302 302 302 305 303 303 304 306 303 303 301 302 302 300 299 298 297 295 293 291 293 295 294 294
343 329 310 300 295 291 281 281 278 270 266 268 272 279 289 291 294 294 298 302 304 302 301 303 304 302 303 303 302 300 300 301 301 298 296 295 296 296 295 293 293 294 294 293
344 323 313 308 306 300 297 291 283 273 269 269 270 279 289 295 296 297 300 303 305 302 301 301 302 302 301 300 300 301 299 300 300 298 295 292 293 296 296 295 294 293 294 292
332 329 326 318 308 304 307 299 291 283 277 272 275 283 290 296 296 294 297 301 303 304 304 304 303 303 302 299 300 300 299 299 299 298 297 295 293 295 295 295 294 293 293 294
324 327 327 324 317 314 311 307 294 280 279 278 279 283 289 293 295 295 298 300 303 305 305 306 305 303 302 302 300 300 300 301 301 301 299 296 293 293 294 296 295 294 292 294
329 329 323 323 324 321 321 315 305 295 291 286 289 289 293 295 296 300 302 304 305 305 305 307 306 304 304 305 303 301 301 301 302 302 300 296 294 293 293 295 295 296 296 296
327 326 320 316 316 320 320 318 311 308 303 295 296 296 297 302 301 303 307 308 307 308 310 308 306 306 305 305 305 303 302 301 301 301 301 298 298 296 295 296 297 299 300 301
318 316 313 314 314 316 320 322 314 309 308 306 304 304 309 310 307 308 310 313 309 308 310 308 306 306 307 305 307 307 303 302 302 302 302 299 297 299 297 297 299 301 300 301
315 313 314 310 307 309 312 313 313 312 310 307 308 310 314 312 312 313 313 315 314 311 310 308 307 307 308 308 309 311 308 307 306 304 300 296 297 296 295 297 298 300 301 302
315 312 312 310 305 307 311 315 310 309 313 313 311 311 317 315 314 315 315 316 316 314 312 309 308 307 306 307 306 309 311 308 307 304 301 298 297 296 295 297 297 299 301 303
316 312 312 310 308 309 308 309 308 309 311 313 312 315 318 319 320 320 318 318 319 318 317 315 312 308 306 306 306 309 309 306 305 305 302 302 300 297 296 297 297 298 299 301
310 310 312 310 309 308 306 307 307 307 309 310 312 315 319 320 322 322 322 321 323 322 319 317 315 312 310 310 310 311 308 305 304 303 301 301 299 297 297 298 297 298 300 303
307 306 308 307 307 307 308 310 308 307 309 312 315 315 316 317 320 322 323 324 324 324 321 320 318 316 314 315 313 312 310 308 306 305 304 304 301 298 300 300 298 299 302 305
304 304 304 305 306 307 307 306 305 305 309 311 315 318 317 317 318 320 321 322 324 324 323 324 323 320 319 317 316 317 318 313 309 309 307 307 307 301 302 302 300 300 303 306
301 303 304 306 309 310 310 308 306 306 311 313 316 319 317 317 318 320 321 322 324 325 326 327 326 327 326 322 318 322 323 318 312 311 311 310 307 302 302 303 301 302 306 309
299 302 304 307 308 309 311 307 306 305 308 311 313 316 317 318 320 321 321 322 323 326 328 329 330 330 331 331 330 328 324 322 320 317 315 313 310 308 304 306 306 306 309 315
298 301 303 305 306 307 308 306 305 306 308 312 312 313 314 316 319 320 321 322 324 324 328 328 330 332 334 336 338 335 332 326 323 323 318 313 311 312 309 308 312 315 316 319
294 297 300 302 302 306 308 305 305 306 307 309 311 312 314 317 318 320 321 323 325 324 326 326 329 332 334 338 339 336 335 333 331 327 322 315 313 314 315 314 316 317 319 322
295 295 298 300 301 304 305 305 306 306 308 307 309 311 316 316 316 318 320 322 325 325 326 326 327 330 334 335 336 336 337 335 332 330 326 323 321 322 324 329 330 328 328 331
298 295 298 298 298 300 302 305 305 305 304 305 308 309 313 314 315 317 318 320 323 324 325 326 328 330 334 333 334 336 338 339 338 336 336 335 334 333 337 342 343 342 342 341
294 296 296 297 296 296 299 302 305 304 303 302 305 307 310 312 314 316 316 318 320 321 324 325 328 332 334 335 336 337 342 345 347 349 351 350 350 354 353 350 354 354 353 350
293 294 292 293 293 293 296 297 299 299 301 301 303 305 306 308 309 311 313 315 315 316 320 320 323 328 331 334 338 342 349 350 351 354 356 357 3 10 9 7 6 4 360 355
291 290 289 289 289 289 292 294 293 293 297 296 296 299 301 301 304 307 308 309 311 312 315 317 319 323 329 333 337 346 349 352 353 356 0 5 12 14 16 14 12 5 359 357
287 287 289 288 287 287 290 292 291 290 292 291 290 293 297 298 301 304 304 304 306 309 313 314 317 322 328 334 340 346 349 353 359 6 15 21 26 33 24 19 13 6 1 358
Height
5869 5869 5868 5868 5867 5867 5867 5868 5868 5868 5867 5867 5867 5867 5866 5865 5864 5863 5862 5861 5860 5858 5856 5854 5851 5849 5846 5844 5841 5839 5836 5833 5830 5828 5825 5823 5820 5818 5816 5814 5812 5810 5807 5805
5869 5868 5868 5867 5866 5866 5866 5866 5866 5866 5865 5865 5864 5864 5863 5862 5861 5860 5858 5857 5856 5854 5853 5850 5848 5844 5841 5839 5836 5834 5831 5828 5825 5822 5820 5817 5815 5813 5810 5808 5806 5804 5802 5799
5867 5867 5866 5865 5864 5864 5864 5863 5864 5864 5863 5862 5861 5860 5859 5859 5857 5856 5854 5853 5851 5850 5848 5845 5843 5840 5837 5834 5831 5828 5825 5822 5819 5816 5813 5811 5809 5806 5804 5802 5800 5798 5795 5793
5866 5865 5864 5863 5863 5862 5862 5861 5860 5860 5860 5859 5859 5857 5856 5855 5854 5852 5851 5849 5847 5845 5843 5840 5837 5834 5831 5828 5825 5822 5820 5817 5813 5810 5807 5804 5802 5800 5798 5796 5794 5792 5789 5787
5865 5863 5862 5861 5860 5860 5859 5858 5858 5857 5857 5856 5855 5854 5854 5852 5850 5849 5847 5845 5843 5839 5837 5834 5831 5828 5825 5822 5819 5816 5813 5810 5806 5803 5800 5798 5795 5793 5791 5790 5787 5786 5783 5781
5864 5862 5860 5858 5857 5857 5856 5856 5855 5855 5854 5854 5852 5851 5850 5848 5847 5845 5843 5840 5837 5834 5831 5827 5824 5821 5818 5815 5812 5809 5806 5803 5799 5796 5793 5791 5789 5787 5785 5783 5781 5779 5777 5775
5863 5861 5859 5857 5856 5855 5854 5854 5853 5852 5851 5850 5849 5847 5847 5844 5842 5841 5839 5836 5832 5829 5825 5821 5818 5815 5811 5808 5805 5802 5799 5796 5793 5790 5787 5785 5783 5781 5779 5777 5775 5773 5771 5769
5861 5860 5858 5855 5854 5853 5851 5851 5850 5849 5848 5846 5845 5844 5843 5840 5838 5837 5834 5831 5827 5824 5820 5816 5811 5808 5804 5800 5798 5795 5792 5789 5787 5784 5781 5779 5776 5774 5773 5771 5769 5767 5765 5763
5859 5858 5856 5854 5853 5851 5850 5848 5847 5846 5843 5843 5841 5840 5838 5836 5834 5832 5829 5826 5821 5818 5814 5810 5806 5802 5798 5794 5791 5788 5785 5783 5780 5778 5775 5773 5771 5769 5767 5765 5763 5761 5759 5757
5857 5857 5855 5853 5852 5850 5848 5846 5845 5843 5840 5838 5837 5835 5834 5832 5829 5827 5824 5820 5815 5811 5807 5803 5799 5795 5792 5789 5785 5781 5778 5776 5774 5772 5769 5767 5765 5764 5762 5760 5758 5756 5754 5752
5856 5855 5854 5852 5849 5848 5846 5844 5841 5840 5838 5835 5832 5833 5830 5827 5824 5821 5818 5813 5809 5805 5801 5797 5793 5789 5786 5782 5779 5775 5771 5769 5767 5765 5764 5762 5760 5758 5757 5756 5754 5752 5750 5748
5854 5853 5851 5849 5847 5845 5843 5841 5839 5838 5835 5832 5829 5830 5825 5822 5818 5815 5811 5808 5804 5799 5795 5791 5787 5783 5780 5777 5774 5770 5766 5764 5762 5760 5758 5757 5755 5753 5752 5751 5749 5748 5746 5743
5851 5850 5849 5847 5846 5844 5841 5838 5836 5834 5832 5829 5826 5826 5820 5817 5814 5810 5806 5802 5798 5794 5790 5786 5782 5778 5774 5771 5768 5765 5762 5759 5757 5754 5753 5751 5750 5749 5748 5746 5745 5743 5741 5739
5849 5848 5847 5845 5842 5840 5838 5836 5834 5831 5828 5826 5823 5820 5817 5813 5810 5806 5803 5799 5794 5790 5785 5781 5776 5772 5769 5765 5762 5759 5756 5754 5752 5750 5748 5747 5746 5744 5743 5742 5740 5739 5737 5735
5846 5845 5843 5841 5839 5836 5834 5832 5830 5827 5824 5822 5819 5816 5813 5809 5806 5802 5798 5794 5789 5785 5781 5776 5772 5768 5764 5760 5757 5754 5751 5749 5747 5745 5744 5742 5741 5740 5738 5737 5735 5734 5733 5731
5842 5841 5839 5837 5835 5833 5831 5828 5825 5823 5820 5818 5815 5812 5809 5805 5802 5798 5793 5789 5785 5781 5776 5771 5767 5763 5759 5756 5753 5750 5747 5745 5743 5742 5740 5739 5737 5735 5734 5732 5731 5730 5728 5726
5838 5837 5835 5833 5831 5829 5827 5824 5821 5818 5816 5814 5811 5809 5805 5801 5798 5793 5789 5785 5780 5776 5772 5768 5764 5759 5756 5752 5749 5746 5744 5741 5740 5738 5737 5735 5733 5732 5730 5728 5727 5726 5724 5723
5834 5832 5830 5828 5827 5824 5824 5819 5817 5814 5812 5810 5807 5803 5800 5797 5793 5789 5784 5780 5776 5772 5768 5764 5760 5756 5753 5749 5746 5743 5740 5738 5736 5735 5733 5731 5730 5728 5727 5725 5724 5722 5721 5719
5828 5827 5825 5823 5821 5820 5818 5815 5812 5809 5807 5805 5802 5799 5796 5792 5789 5785 5780 5776 5772 5768 5764 5761 5757 5754 5750 5747 5743 5741 5738 5736 5734 5732 5730 5729 5727 5726 5724 5722 5721 5719 5718 5716
5823 5821 5820 5818 5815 5814 5814 5810 5806 5805 5802 5799 5796 5794 5791 5787 5784 5781 5776 5772 5768 5764 5761 5757 5754 5752 5748 5745 5742 5739 5736 5734 5731 5729 5728 5726 5725 5723 5722 5720 5718 5717 5715 5713
5817 5816 5814 5812 5809 5808 5807 5804 5802 5800 5798 5794 5791 5788 5785 5782 5779 5775 5771 5768 5765 5761 5758 5755 5752 5749 5746 5743 5740 5738 5735 5732 5729 5727 5725 5723 5722 5721 5719 5718 5717 5715 5713 5711
5810 5809 5808 5806 5804 5804 5801 5798 5796 5794 5790 5788 5786 5783 5781 5778 5774 5771 5767 5764 5761 5758 5755 5752 5749 5747 5744 5741 5739 5736 5733 5730 5727 5725 5723 5721 5720 5719 5718 5717 5716 5714 5712 5710
5804 5803 5801 5800 5800 5797 5794 5792 5790 5787 5785 5783 5780 5778 5775 5772 5769 5766 5763 5760 5758 5755 5752 5750 5747 5745 5742 5739 5737 5734 5731 5728 5726 5724 5722 5720 5719 5718 5717 5716 5715 5713 5711 5709
5798 5796 5794 5792 5791 5790 5788 5786 5784 5781 5779 5777 5775 5772 5770 5767 5764 5762 5759 5757 5754 5752 5750 5748 5745 5743 5740 5738 5735 5733 5730 5728 5726 5724 5722 5720 5719 5718 5717 5716 5714 5713 5711 5708
5791 5789 5787 5786 5785 5783 5781 5780 5778 5775 5773 5772 5770 5767 5765 5762 5760 5758 5756 5753 5751 5749 5747 5745 5743 5740 5738 5736 5734 5732 5730 5728 5726 5724 5722 5720 5719 5718 5717 5716 5714 5712 5711 5708
5783 5781 5780 5779 5777 5776 5775 5773 5771 5769 5768 5766 5765 5763 5760 5758 5756 5754 5752 5750 5748 5746 5744 5742 5740 5738 5736 5734 5733 5731 5730 5728 5726 5725 5723 5722 5720 5719 5718 5716 5715 5712 5710 5707